Probability
0 0 0 0 0 0 0 0 0 0 0 1 2 3 3 3 3 4 6 6 4 3 1 0 0 1 2 4 6 6 6 4 2 1 2 2 2 1 2 2 1 0 0 0
0 0 0 0 0 0 0 0 0 0 0 1 2 3 3 3 3 3 4 5 4 3 2 1 0 1 3 5 6 6 6 4 3 2 3 3 2 1 1 1 0 0 0 0
0 0 0 0 0 0 0 0 0 0 0 1 2 3 3 3 3 2 3 4 4 3 2 1 0 2 4 5 5 6 7 5 4 3 3 2 2 1 0 0 0 0 0 0
0 0 0 0 0 0 0 0 0 0 0 0 1 1 2 3 2 2 4 6 5 4 3 1 0 1 3 4 3 5 8 8 5 3 2 1 1 1 0 0 0 0 0 0
0 0 0 0 0 0 0 0 0 0 0 0 0 0 1 2 2 2 4 7 7 6 5 2 0 0 1 1 1 4 8 9 7 4 2 1 1 0 0 0 0 0 0 0
1 0 0 0 0 0 0 0 0 0 0 0 0 0 1 2 3 3 4 6 7 7 7 4 1 1 1 1 1 3 6 8 9 7 5 3 2 0 0 0 0 0 0 0
2 1 0 0 0 0 0 0 0 0 0 0 0 1 2 3 3 3 3 4 5 7 7 5 3 2 2 3 2 3 5 8 10 10 8 6 4 1 0 0 0 0 0 0
2 1 0 0 0 0 0 0 0 0 0 0 0 1 2 2 3 3 3 4 5 7 8 5 3 2 3 4 3 2 3 6 8 9 10 9 6 2 1 1 1 0 0 0
1 1 0 0 0 0 0 0 0 0 0 0 0 2 2 2 3 4 4 6 8 10 9 5 2 1 2 2 2 2 3 4 5 7 9 9 6 4 4 4 3 2 2 2
0 0 0 0 0 0 0 0 0 0 0 0 0 1 3 3 3 5 7 8 10 13 11 5 2 1 1 1 2 3 4 4 4 5 7 7 6 6 7 8 9 8 7 7
0 0 0 0 0 0 0 0 0 0 0 0 0 1 2 3 3 7 11 11 11 13 11 7 4 3 3 3 4 5 7 8 8 8 9 9 9 11 13 14 14 13 14 14
0 0 0 0 0 0 0 0 0 0 0 0 0 1 1 1 2 6 12 14 14 14 12 10 10 9 7 7 8 8 11 13 14 14 13 13 14 16 17 17 16 16 17 17
0 0 0 0 0 0 0 0 0 0 0 0 0 1 1 1 3 6 12 16 16 14 14 16 17 16 14 12 12 13 15 18 20 20 18 17 17 18 19 19 18 18 19 19
0 0 0 0 0 0 0 0 0 0 0 0 0 1 2 4 7 9 12 15 15 15 16 19 21 21 20 19 19 19 20 22 25 25 23 22 22 22 22 21 20 20 20 21
0 0 0 0 0 0 0 0 0 0 0 0 1 3 6 9 10 11 13 14 16 18 19 20 23 24 22 21 23 25 26 28 31 31 29 28 28 28 26 23 21 21 21 20
0 0 0 0 0 0 0 1 1 0 1 1 2 7 12 14 14 16 18 19 22 24 25 24 27 27 23 21 23 26 30 32 34 33 31 30 30 30 29 26 25 25 23 21
0 0 0 0 0 0 1 2 2 2 3 5 6 10 14 17 19 21 24 27 29 30 30 32 34 30 26 26 27 28 30 33 33 32 30 29 29 31 32 31 30 31 29 27
1 0 0 0 0 0 2 3 3 5 8 10 13 15 15 16 21 24 26 30 33 32 32 36 37 33 30 32 33 32 33 32 32 31 30 29 29 32 34 34 33 34 34 33
1 0 0 0 0 1 3 5 6 10 14 16 17 18 17 17 22 24 24 27 32 33 31 31 32 29 28 32 35 36 35 32 31 32 33 32 32 34 37 37 37 37 35 34
1 0 0 0 0 2 6 8 8 11 15 19 20 21 21 22 26 27 24 23 27 30 29 29 29 27 27 31 35 35 33 29 29 32 34 34 34 34 36 38 40 40 37 34
1 0 0 0 0 3 9 11 10 13 17 22 25 26 27 30 34 32 25 21 22 26 29 31 32 32 32 35 36 34 30 28 29 31 33 33 32 31 31 35 39 40 37 35
1 1 1 1 2 6 12 15 16 19 21 24 28 30 32 34 33 29 23 19 20 24 29 33 36 37 37 38 37 35 32 29 28 29 29 28 28 27 27 31 33 33 33 33
2 4 5 6 8 11 15 17 19 22 23 24 27 29 30 30 27 22 19 18 19 24 29 33 35 37 38 37 36 34 32 30 28 26 26 25 25 24 24 24 24 24 26 28
5 7 10 11 13 15 16 17 17 20 22 23 24 25 25 24 20 17 16 18 20 24 28 30 33 34 35 34 32 29 27 27 26 24 24 25 24 21 19 17 17 18 21 23
7 9 12 14 14 15 16 16 16 16 18 20 21 20 20 17 14 11 12 15 18 21 24 27 30 31 30 29 27 24 23 23 22 22 23 23 21 19 16 14 13 14 16 17
9 10 12 13 14 15 16 16 15 13 14 17 18 17 15 12 10 8 9 12 15 18 20 24 27 28 26 24 22 22 22 21 21 22 22 20 19 19 16 12 11 11 12 12
Wind_Speed
8 10 9 6 5 4 3 3 0 3 4 6 5 4 7 10 10 9 9 9 9 8 8 7 7 6 6 6 6 5 5 5 4 3 3 3 3 2 2 2 3 3 2 3
11 11 7 4 5 6 5 5 2 5 4 4 4 4 6 9 10 9 9 9 9 9 9 9 8 7 7 7 6 6 6 6 5 3 2 2 1 2 2 2 2 2 2 2
14 7 6 7 8 8 6 5 2 3 5 6 4 5 7 8 8 9 9 9 10 10 11 10 9 9 8 8 7 6 6 6 5 4 4 3 3 3 3 3 3 2 2 2
12 8 8 10 9 9 7 3 3 5 7 4 5 3 6 7 9 9 10 10 10 11 11 11 10 10 9 8 8 7 7 6 5 5 4 4 3 2 2 2 2 2 2 2
11 10 11 11 8 8 3 3 5 6 7 5 5 6 3 6 7 9 10 10 10 11 11 11 11 10 9 9 8 8 7 7 6 5 5 4 4 3 3 3 3 2 2 2
9 8 9 8 6 6 7 6 6 7 8 7 3 6 1 3 4 5 8 10 10 10 11 11 10 10 9 9 8 8 8 7 7 7 6 5 4 3 3 3 3 3 2 2
13 11 8 7 9 9 11 9 7 8 8 5 3 5 1 2 1 3 6 9 10 10 10 11 11 11 10 10 9 9 8 8 8 8 7 6 5 5 5 4 4 3 2 2
16 15 13 11 12 10 12 13 10 8 7 4 6 5 1 2 2 2 4 7 10 10 10 10 11 11 11 11 10 10 9 8 8 8 7 7 7 5 4 4 3 3 2 2
13 13 11 9 9 11 12 12 11 10 9 7 5 4 4 4 4 5 6 7 9 10 10 10 10 11 11 11 11 10 10 9 8 8 8 7 7 5 4 5 4 3 3 3
9 10 11 9 9 7 9 9 8 10 9 9 7 7 4 4 4 5 6 7 8 9 9 10 10 10 10 10 10 9 9 9 8 8 7 6 7 6 5 5 5 4 3 3
12 11 11 12 13 12 10 11 10 9 9 10 8 3 1 2 4 5 6 6 7 8 8 9 9 9 10 9 9 9 9 9 8 8 7 6 6 6 6 5 5 5 5 5
11 10 10 11 8 7 11 12 12 10 9 9 10 3 2 2 3 4 4 5 6 6 7 8 9 9 9 9 9 9 9 9 8 7 7 7 6 6 6 6 6 5 5 5
8 10 11 12 11 9 10 11 13 13 11 10 11 4 5 4 2 3 4 5 6 6 7 8 8 8 8 8 7 7 8 8 8 8 8 7 7 7 7 6 6 6 5 5
7 10 12 12 9 10 11 11 12 13 11 11 10 6 4 3 3 3 5 6 6 6 7 7 7 7 7 7 7 7 7 7 7 8 8 8 8 7 6 6 6 6 6 5
7 10 10 9 7 7 9 10 11 13 12 12 8 7 4 2 2 3 4 6 6 7 6 6 6 6 6 6 6 6 6 6 6 7 7 7 7 7 6 6 6 5 6 6
4 7 10 10 9 8 9 9 10 11 11 11 9 6 1 1 3 4 4 5 6 6 6 5 5 4 5 5 5 5 6 6 6 6 6 6 6 6 6 6 6 6 6 6
5 7 10 11 11 11 12 9 10 9 9 10 10 4 4 3 4 4 4 5 5 5 4 4 3 4 4 4 4 5 5 5 6 6 6 6 6 6 6 7 6 6 6 6
6 7 7 8 10 15 5 3 6 7 5 5 2 3 3 3 4 3 3 4 4 3 3 3 2 3 4 4 4 4 5 5 6 6 6 6 6 6 7 7 7 7 6 6
5 7 7 8 11 10 5 5 6 6 5 3 4 4 4 5 5 5 4 3 3 2 2 1 2 2 2 3 3 4 4 5 6 6 6 6 6 6 6 7 7 6 6 6
5 6 8 8 11 11 5 5 2 5 7 4 4 4 5 6 5 4 4 3 3 3 2 1 1 2 2 2 3 3 4 4 5 5 5 5 6 6 6 6 6 5 6 6
7 7 9 10 10 4 5 2 5 8 3 4 3 3 3 2 2 4 2 2 2 2 2 1 1 1 1 2 2 3 3 3 3 3 3 4 4 5 5 5 5 4 5 5
6 7 8 8 9 4 4 3 2 4 4 3 3 2 1 3 3 2 2 1 1 1 1 1 1 1 1 1 2 2 2 1 1 2 2 3 4 4 4 4 4 4 5 5
2 3 2 2 2 6 4 3 4 2 2 2 2 3 3 3 2 2 1 1 1 1 1 1 1 1 1 0 1 1 1 1 1 1 2 2 3 3 3 4 5 4 5 5
3 1 1 2 3 3 3 3 3 3 3 3 3 3 2 2 1 1 1 1 1 1 1 1 1 1 1 1 1 1 2 2 2 2 2 3 3 3 3 3 3 4 4 5
1 2 2 2 3 2 3 2 3 4 4 5 5 4 3 2 1 1 1 1 2 1 1 1 2 2 2 2 2 2 2 3 3 3 3 3 3 3 3 3 2 4 4 4
1 2 3 1 2 1 2 2 3 3 4 4 3 3 2 1 1 1 1 2 2 2 2 2 3 3 3 3 3 3 3 4 4 4 4 4 4 3 3 3 3 2 3 4
Wind_Direction
200 221 218 210 236 277 267 259 217 104 153 203 214 201 174 177 192 191 188 186 186 184 172 173 179 180 176 176 178 180 181 170 181 181 190 173 167 168 154 151 144 161 167 158
209 221 220 217 217 229 230 236 191 136 157 215 208 211 189 188 197 201 198 194 194 187 178 178 184 184 184 181 183 185 186 181 189 176 183 178 162 166 149 137 133 162 173 176
222 211 189 207 204 213 223 246 254 153 164 200 223 195 183 187 199 203 209 205 199 196 188 184 188 190 188 185 188 189 184 183 189 180 182 172 172 189 164 156 153 162 169 170
224 209 199 212 211 221 220 228 228 196 214 191 242 257 159 180 193 202 206 206 202 195 193 189 188 190 190 187 184 183 180 183 182 187 194 194 188 177 151 164 143 152 166 178
210 202 207 218 219 227 226 190 213 219 241 249 220 267 133 169 200 200 199 199 198 192 190 189 189 187 187 184 180 176 178 180 181 187 182 195 199 186 169 166 154 177 166 186
217 201 219 222 205 200 169 173 188 221 239 245 239 264 205 163 205 194 185 188 191 188 186 187 185 182 185 181 179 175 175 181 181 185 184 192 192 193 183 183 177 185 171 179
206 201 201 206 194 186 206 217 223 225 228 232 171 248 285 77 153 195 180 179 181 182 181 182 183 181 184 183 181 177 174 180 184 187 189 189 191 192 194 204 188 196 184 172
207 204 198 206 220 212 219 237 246 259 256 221 189 233 163 122 144 171 179 175 175 178 180 181 183 183 184 185 182 181 180 185 187 188 188 190 192 198 192 197 206 192 194 177
216 210 192 202 221 233 219 231 252 257 257 258 225 209 209 184 187 178 172 172 175 179 179 180 181 184 184 185 185 185 184 187 189 190 188 189 194 200 190 184 200 196 192 180
233 220 194 185 199 219 250 233 231 247 249 254 240 229 219 193 194 182 179 177 174 176 177 179 180 181 182 183 181 185 186 190 192 191 192 185 188 192 192 196 190 190 186 180
231 222 201 196 211 208 204 218 231 244 255 260 257 239 76 196 203 196 184 177 170 171 172 172 175 178 178 179 177 181 186 189 192 194 191 190 187 188 189 194 192 189 187 182
221 228 215 206 208 252 228 228 223 234 240 252 268 255 95 165 196 188 173 161 160 165 167 167 168 170 176 180 181 181 186 188 191 187 186 186 186 188 193 191 190 185 182 185
205 222 214 206 197 201 223 230 235 240 244 246 255 233 139 148 162 163 161 154 154 162 164 162 163 167 173 178 182 183 189 189 187 184 187 185 190 192 196 193 190 186 183 185
234 226 235 233 217 198 208 217 230 238 240 243 248 247 198 179 177 170 159 153 152 153 159 164 165 170 173 176 177 184 190 188 186 186 191 188 192 192 192 194 191 188 186 185
227 222 226 238 236 221 217 219 221 234 248 258 251 245 231 213 181 161 155 149 150 152 159 164 168 168 173 173 176 183 186 185 184 188 193 191 190 187 186 192 192 191 195 191
224 221 213 220 220 221 227 230 226 230 242 249 249 242 149 157 134 139 150 155 154 155 159 164 168 166 173 176 179 181 185 182 181 188 193 187 188 189 189 192 190 190 195 197
207 213 219 216 210 224 227 231 229 226 233 240 241 224 161 154 151 148 153 155 150 146 147 154 163 171 177 183 186 186 184 179 181 190 193 187 193 198 200 199 194 196 199 197
218 223 230 218 208 228 215 217 234 223 223 239 232 178 171 149 129 127 138 141 139 137 141 146 162 170 173 175 182 186 178 178 186 192 194 194 198 202 202 202 203 203 205 204
219 220 232 226 221 218 185 194 208 210 204 194 196 172 152 144 146 136 120 118 124 127 126 144 172 167 162 165 166 174 181 183 190 198 200 200 202 204 203 204 205 205 207 214
177 220 233 228 236 231 182 150 204 224 198 159 175 160 157 176 198 132 108 108 103 97 91 91 126 149 155 164 161 179 189 190 199 202 200 201 206 209 210 206 205 208 207 215
184 203 224 227 234 218 76 124 192 222 155 131 164 169 186 195 32 84 96 103 111 95 81 68 87 109 133 152 168 185 192 205 212 209 201 199 204 211 214 214 212 212 211 213
218 209 212 226 232 186 71 184 218 41 70 131 138 151 121 80 90 102 93 99 124 87 63 62 69 79 78 142 162 173 187 216 211 196 199 202 207 213 206 206 209 209 213 212
243 325 297 309 33 65 47 46 46 49 100 112 112 99 111 128 119 101 71 37 32 33 19 5 11 22 27 81 178 194 213 216 195 192 211 212 210 218 217 212 210 209 213 218
141 254 201 151 109 84 69 71 69 69 79 83 85 87 105 108 92 61 17 3 1 345 338 319 304 300 327 326 244 234 231 217 206 208 217 217 217 218 216 227 223 223 226 226
98 204 190 173 149 141 101 72 70 72 74 73 67 57 44 62 46 24 13 354 351 341 316 295 285 287 288 289 276 255 242 229 224 221 222 227 227 221 212 219 240 236 233 235
236 248 251 207 160 195 114 76 68 76 73 66 62 53 28 4 6 348 348 343 333 328 326 313 304 297 294 292 287 279 256 240 238 240 234 229 229 221 217 211 223 225 238 217